Time,TemperatureF,DewpointF,PressureIn,WindDirection,WindDirectionDegrees,WindSpeedMPH,WindSpeedGustMPH,Humidity,HourlyPrecipIn,Conditions,Clouds,dailyrainin,SoftwareType,DateUTC
2013-06-07 00:00:00,59.0,54.0,29.93,North,-999,-999.0,-999.0,81,-99.99,,,-99.99,,2013-06-07 05:00:00,
2013-06-07 00:12:00,60.0,53.0,29.92,North,-999,-999.0,-999.0,77,-99.99,,,-99.99,,2013-06-07 05:12:00,
2013-06-07 00:22:00,60.0,54.0,29.93,North,-999,-999.0,-999.0,80,-99.99,,,-99.99,,2013-06-07 05:22:00,
2013-06-07 00:32:00,59.0,54.0,29.93,North,-999,-999.0,-999.0,81,-99.99,,,-99.99,,2013-06-07 05:32:00,
2013-06-07 00:42:00,59.0,54.0,29.93,North,-999,-999.0,-999.0,81,-99.99,,,-99.99,,2013-06-07 05:42:00,
2013-06-07 00:52:00,59.0,54.0,29.93,North,-999,-999.0,-999.0,81,-99.99,,,-99.99,,2013-06-07 05:52:00,
2013-06-07 01:12:00,59.0,55.0,29.93,North,-999,-999.0,-999.0,85,-99.99,,,-99.99,,2013-06-07 06:12:00,
2013-06-07 01:22:00,58.0,55.0,29.93,North,-999,-999.0,-999.0,87,-99.99,,,-99.99,,2013-06-07 06:22:00,
2013-06-07 01:32:00,58.0,55.0,29.93,North,-999,-999.0,-999.0,87,-99.99,,,-99.99,,2013-06-07 06:32:00,
2013-06-07 01:42:00,59.0,55.0,29.93,North,-999,-999.0,-999.0,87,-99.99,,,-99.99,,2013-06-07 06:42:00,
2013-06-07 01:52:00,59.0,54.0,29.93,North,-999,-999.0,-999.0,84,-99.99,,,-99.99,,2013-06-07 06:52:00,
2013-06-07 02:02:00,59.0,54.0,29.93,North,-999,-999.0,-999.0,84,-99.99,,,-99.99,,2013-06-07 07:02:00,
2013-06-07 02:12:00,59.0,54.0,29.93,North,-999,-999.0,-999.0,85,-99.99,,,-99.99,,2013-06-07 07:12:00,
2013-06-07 02:22:00,58.0,54.0,29.93,North,-999,-999.0,-999.0,85,-99.99,,,-99.99,,2013-06-07 07:22:00,
2013-06-07 02:32:00,58.0,54.0,29.93,North,-999,-999.0,-999.0,85,-99.99,,,-99.99,,2013-06-07 07:32:00,
2013-06-07 02:42:00,58.0,54.0,29.93,North,-999,-999.0,-999.0,85,-99.99,,,-99.99,,2013-06-07 07:42:00,
2013-06-07 02:52:00,58.0,53.0,29.92,North,-999,-999.0,-999.0,85,-99.99,,,-99.99,,2013-06-07 07:52:00,
2013-06-07 03:02:00,58.0,53.0,29.92,North,-999,-999.0,-999.0,85,-99.99,,,-99.99,,2013-06-07 08:02:00,
2013-06-07 03:12:00,58.0,54.0,29.92,North,-999,-999.0,-999.0,85,-99.99,,,-99.99,,2013-06-07 08:12:00,
2013-06-07 03:22:00,58.0,53.0,29.92,North,-999,-999.0,-999.0,84,-99.99,,,-99.99,,2013-06-07 08:22:00,
2013-06-07 03:32:00,58.0,53.0,29.92,North,-999,-999.0,-999.0,84,-99.99,,,-99.99,,2013-06-07 08:32:00,
2013-06-07 03:43:00,58.0,53.0,29.93,North,-999,-999.0,-999.0,84,-99.99,,,-99.99,,2013-06-07 08:43:00,
2013-06-07 03:52:00,57.0,53.0,29.92,North,-999,-999.0,-999.0,86,-99.99,,,-99.99,,2013-06-07 08:52:00,
2013-06-07 04:02:00,57.0,53.0,29.92,North,-999,-999.0,-999.0,86,-99.99,,,-99.99,,2013-06-07 09:02:00,
2013-06-07 04:12:00,56.0,52.0,29.92,North,-999,-999.0,-999.0,86,-99.99,,,-99.99,,2013-06-07 09:12:00,
2013-06-07 04:22:00,56.0,52.0,29.92,North,-999,-999.0,-999.0,86,-99.99,,,-99.99,,2013-06-07 09:22:00,
2013-06-07 04:32:00,56.0,52.0,29.92,North,-999,-999.0,-999.0,86,-99.99,,,-99.99,,2013-06-07 09:32:00,
2013-06-07 04:43:00,56.0,52.0,29.92,North,-999,-999.0,-999.0,86,-99.99,,,-99.99,,2013-06-07 09:43:00,
2013-06-07 04:53:00,55.0,51.0,29.92,North,-999,-999.0,-999.0,86,-99.99,,,-99.99,,2013-06-07 09:53:00,
2013-06-07 05:02:00,55.0,51.0,29.92,North,-999,-999.0,-999.0,86,-99.99,,,-99.99,,2013-06-07 10:02:00,
2013-06-07 05:12:00,56.0,52.0,29.93,North,-999,-999.0,-999.0,88,-99.99,,,-99.99,,2013-06-07 10:12:00,
2013-06-07 05:23:00,55.0,51.0,29.93,North,-999,-999.0,-999.0,86,-99.99,,,-99.99,,2013-06-07 10:23:00,
2013-06-07 05:33:00,55.0,52.0,29.93,North,-999,-999.0,-999.0,88,-99.99,,,-99.99,,2013-06-07 10:33:00,
2013-06-07 05:42:00,55.0,52.0,29.93,North,-999,-999.0,-999.0,88,-99.99,,,-99.99,,2013-06-07 10:42:00,
2013-06-07 05:52:00,56.0,52.0,29.94,North,-999,-999.0,-999.0,87,-99.99,,,-99.99,,2013-06-07 10:52:00,
2013-06-07 06:02:00,56.0,52.0,29.94,North,-999,-999.0,-999.0,87,-99.99,,,-99.99,,2013-06-07 11:02:00,
2013-06-07 06:12:00,56.0,52.0,29.94,North,-999,-999.0,-999.0,86,-99.99,,,-99.99,,2013-06-07 11:12:00,
2013-06-07 06:22:00,55.0,50.0,29.94,North,-999,-999.0,-999.0,84,-99.99,,,-99.99,,2013-06-07 11:22:00,
2013-06-07 06:32:00,54.0,51.0,29.94,North,-999,-999.0,-999.0,87,-99.99,,,-99.99,,2013-06-07 11:32:00,
2013-06-07 06:42:00,54.0,51.0,29.94,North,-999,-999.0,-999.0,87,-99.99,,,-99.99,,2013-06-07 11:42:00,
2013-06-07 06:52:00,55.0,52.0,29.94,North,-999,-999.0,-999.0,88,-99.99,,,-99.99,,2013-06-07 11:52:00,
2013-06-07 07:02:00,55.0,52.0,29.94,North,-999,-999.0,-999.0,88,-99.99,,,-99.99,,2013-06-07 12:02:00,
2013-06-07 07:12:00,56.0,52.0,29.94,North,-999,-999.0,-999.0,86,-99.99,,,-99.99,,2013-06-07 12:12:00,
2013-06-07 07:22:00,57.0,52.0,29.95,North,-999,-999.0,-999.0,85,-99.99,,,-99.99,,2013-06-07 12:22:00,
2013-06-07 07:32:00,57.0,52.0,29.95,North,-999,-999.0,-999.0,85,-99.99,,,-99.99,,2013-06-07 12:32:00,
2013-06-07 07:42:00,58.0,54.0,29.95,North,-999,-999.0,-999.0,85,-99.99,,,-99.99,,2013-06-07 12:42:00,
2013-06-07 07:52:00,60.0,55.0,29.95,North,-999,-999.0,-999.0,84,-99.99,,,-99.99,,2013-06-07 12:52:00,
2013-06-07 08:00:00,62.0,55.0,29.95,North,-999,-999.0,-999.0,77,-99.99,,,-99.99,,2013-06-07 13:00:00,
2013-06-07 08:02:00,60.0,55.0,29.95,North,-999,-999.0,-999.0,84,-99.99,,,-99.99,,2013-06-07 13:02:00,
2013-06-07 08:12:00,61.0,55.0,29.95,North,-999,-999.0,-999.0,82,-99.99,,,-99.99,,2013-06-07 13:12:00,
2013-06-07 08:22:00,61.0,54.0,29.95,North,-999,-999.0,-999.0,78,-99.99,,,-99.99,,2013-06-07 13:22:00,
2013-06-07 08:32:00,61.0,54.0,29.95,North,-999,-999.0,-999.0,78,-99.99,,,-99.99,,2013-06-07 13:32:00,
2013-06-07 08:42:00,62.0,55.0,29.95,North,-999,-999.0,-999.0,77,-99.99,,,-99.99,,2013-06-07 13:42:00,
2013-06-07 08:52:00,62.0,55.0,29.95,North,-999,-999.0,-999.0,77,-99.99,,,-99.99,,2013-06-07 13:52:00,
2013-06-07 09:12:00,63.0,55.0,29.96,North,-999,-999.0,-999.0,75,-99.99,,,-99.99,,2013-06-07 14:12:00,
2013-06-07 09:23:00,64.0,54.0,29.96,North,-999,-999.0,-999.0,71,-99.99,,,-99.99,,2013-06-07 14:23:00,
2013-06-07 09:32:00,64.0,54.0,29.96,North,-999,-999.0,-999.0,71,-99.99,,,-99.99,,2013-06-07 14:32:00,
2013-06-07 09:42:00,65.0,56.0,29.97,North,-999,-999.0,-999.0,71,-99.99,,,-99.99,,2013-06-07 14:42:00,
2013-06-07 09:52:00,66.0,56.0,29.97,North,-999,-999.0,-999.0,70,-99.99,,,-99.99,,2013-06-07 14:52:00,
2013-06-07 10:02:00,66.0,56.0,29.97,North,-999,-999.0,-999.0,70,-99.99,,,-99.99,,2013-06-07 15:02:00,
2013-06-07 10:12:00,67.0,57.0,29.97,North,-999,-999.0,-999.0,71,-99.99,,,-99.99,,2013-06-07 15:12:00,
2013-06-07 10:23:00,66.0,54.0,29.97,North,-999,-999.0,-999.0,65,-99.99,,,-99.99,,2013-06-07 15:23:00,
2013-06-07 10:33:00,66.0,54.0,29.97,North,-999,-999.0,-999.0,65,-99.99,,,-99.99,,2013-06-07 15:33:00,
2013-06-07 10:43:00,68.0,56.0,29.97,North,-999,-999.0,-999.0,67,-99.99,,,-99.99,,2013-06-07 15:43:00,
2013-06-07 10:53:00,69.0,57.0,29.97,North,-999,-999.0,-999.0,64,-99.99,,,-99.99,,2013-06-07 15:53:00,
2013-06-07 11:03:00,69.0,57.0,29.97,North,-999,-999.0,-999.0,64,-99.99,,,-99.99,,2013-06-07 16:03:00,
2013-06-07 11:13:00,70.0,56.0,29.97,North,-999,-999.0,-999.0,61,-99.99,,,-99.99,,2013-06-07 16:13:00,
2013-06-07 11:22:00,70.0,58.0,29.97,North,-999,-999.0,-999.0,65,-99.99,,,-99.99,,2013-06-07 16:22:00,
2013-06-07 11:33:00,70.0,58.0,29.96,North,-999,-999.0,-999.0,66,-99.99,,,-99.99,,2013-06-07 16:33:00,
2013-06-07 11:43:00,70.0,58.0,29.96,North,-999,-999.0,-999.0,66,-99.99,,,-99.99,,2013-06-07 16:43:00,
2013-06-07 11:52:00,69.0,54.0,29.97,North,-999,-999.0,-999.0,60,-99.99,,,-99.99,,2013-06-07 16:52:00,
2013-06-07 12:03:00,69.0,54.0,29.97,North,-999,-999.0,-999.0,60,-99.99,,,-99.99,,2013-06-07 17:03:00,
2013-06-07 12:13:00,71.0,57.0,29.96,North,-999,-999.0,-999.0,61,-99.99,,,-99.99,,2013-06-07 17:13:00,
2013-06-07 12:23:00,71.0,59.0,29.96,North,-999,-999.0,-999.0,65,-99.99,,,-99.99,,2013-06-07 17:23:00,
2013-06-07 12:32:00,71.0,59.0,29.96,North,-999,-999.0,-999.0,65,-99.99,,,-99.99,,2013-06-07 17:32:00,
2013-06-07 12:42:00,71.0,57.0,29.96,North,-999,-999.0,-999.0,63,-99.99,,,-99.99,,2013-06-07 17:42:00,
2013-06-07 12:52:00,69.0,53.0,29.96,North,-999,-999.0,-999.0,55,-99.99,,,-99.99,,2013-06-07 17:52:00,
2013-06-07 13:35:00,71.0,57.0,29.95,North,-999,-999.0,-999.0,63,-99.99,,,-99.99,,2013-06-07 18:35:00,
2013-06-07 13:45:00,73.0,58.0,29.95,North,-999,-999.0,-999.0,60,-99.99,,,-99.99,,2013-06-07 18:45:00,
2013-06-07 13:56:00,74.0,58.0,29.94,North,-999,-999.0,-999.0,58,-99.99,,,-99.99,,2013-06-07 18:56:00,
2013-06-07 14:07:00,74.0,58.0,29.94,North,-999,-999.0,-999.0,58,-99.99,,,-99.99,,2013-06-07 19:07:00,
2013-06-07 14:15:00,71.0,55.0,29.94,North,-999,-999.0,-999.0,57,-99.99,,,-99.99,,2013-06-07 19:15:00,
2013-06-07 14:28:00,74.0,54.0,29.94,North,-999,-999.0,-999.0,51,-99.99,,,-99.99,,2013-06-07 19:28:00,
2013-06-07 14:36:00,74.0,54.0,29.94,North,-999,-999.0,-999.0,51,-99.99,,,-99.99,,2013-06-07 19:36:00,
2013-06-07 14:48:00,73.0,53.0,29.94,North,-999,-999.0,-999.0,49,-99.99,,,-99.99,,2013-06-07 19:48:00,
2013-06-07 14:55:00,72.0,56.0,29.93,North,-999,-999.0,-999.0,57,-99.99,,,-99.99,,2013-06-07 19:55:00,
2013-06-07 15:07:00,72.0,56.0,29.93,North,-999,-999.0,-999.0,57,-99.99,,,-99.99,,2013-06-07 20:07:00,
2013-06-07 15:16:00,70.0,56.0,29.93,North,-999,-999.0,-999.0,60,-99.99,,,-99.99,,2013-06-07 20:16:00,
2013-06-07 15:25:00,74.0,57.0,29.92,North,-999,-999.0,-999.0,56,-99.99,,,-99.99,,2013-06-07 20:25:00,
2013-06-07 15:38:00,74.0,57.0,29.92,North,-999,-999.0,-999.0,56,-99.99,,,-99.99,,2013-06-07 20:38:00,
2013-06-07 15:46:00,73.0,54.0,29.92,North,-999,-999.0,-999.0,52,-99.99,,,-99.99,,2013-06-07 20:46:00,
2013-06-07 15:55:00,71.0,53.0,29.92,North,-999,-999.0,-999.0,52,-99.99,,,-99.99,,2013-06-07 20:55:00,
2013-06-07 16:05:00,71.0,53.0,29.92,North,-999,-999.0,-999.0,52,-99.99,,,-99.99,,2013-06-07 21:05:00,
2013-06-07 16:27:00,71.0,52.0,29.92,North,-999,-999.0,-999.0,52,-99.99,,,-99.99,,2013-06-07 21:27:00,
2013-06-07 16:38:00,71.0,52.0,29.92,North,-999,-999.0,-999.0,52,-99.99,,,-99.99,,2013-06-07 21:38:00,
2013-06-07 16:45:00,72.0,54.0,29.92,North,-999,-999.0,-999.0,52,-99.99,,,-99.99,,2013-06-07 21:45:00,
2013-06-07 16:55:00,73.0,55.0,29.91,North,-999,-999.0,-999.0,52,-99.99,,,-99.99,,2013-06-07 21:55:00,
2013-06-07 17:07:00,73.0,55.0,29.91,North,-999,-999.0,-999.0,52,-99.99,,,-99.99,,2013-06-07 22:07:00,
2013-06-07 17:28:00,72.0,52.0,29.90,North,-999,-999.0,-999.0,49,-99.99,,,-99.99,,2013-06-07 22:28:00,
2013-06-07 17:47:00,73.0,54.0,29.91,North,-999,-999.0,-999.0,51,-99.99,,,-99.99,,2013-06-07 22:47:00,
2013-06-07 17:55:00,72.0,51.0,29.90,North,-999,-999.0,-999.0,46,-99.99,,,-99.99,,2013-06-07 22:55:00,
2013-06-07 18:00:00,73.0,53.0,29.90,North,-999,-999.0,-999.0,50,-99.99,,,-99.99,,2013-06-07 23:00:00,
2013-06-07 18:08:00,72.0,51.0,29.90,North,-999,-999.0,-999.0,46,-99.99,,,-99.99,,2013-06-07 23:08:00,
2013-06-07 18:18:00,73.0,51.0,29.91,North,-999,-999.0,-999.0,46,-99.99,,,-99.99,,2013-06-07 23:18:00,
2013-06-07 18:37:00,73.0,53.0,29.90,North,-999,-999.0,-999.0,50,-99.99,,,-99.99,,2013-06-07 23:37:00,
2013-06-07 18:49:00,73.0,53.0,29.90,North,-999,-999.0,-999.0,50,-99.99,,,-99.99,,2013-06-07 23:49:00,
2013-06-07 19:17:00,71.0,51.0,29.90,North,-999,-999.0,-999.0,50,-99.99,,,-99.99,,2013-06-08 00:17:00,
2013-06-07 19:28:00,69.0,54.0,29.90,North,-999,-999.0,-999.0,57,-99.99,,,-99.99,,2013-06-08 00:28:00,
2013-06-07 19:34:00,69.0,52.0,29.90,North,-999,-999.0,-999.0,56,-99.99,,,-99.99,,2013-06-08 00:34:00,
2013-06-07 19:45:00,69.0,52.0,29.90,North,-999,-999.0,-999.0,56,-99.99,,,-99.99,,2013-06-08 00:45:00,
2013-06-07 19:55:00,68.0,51.0,29.90,North,-999,-999.0,-999.0,54,-99.99,,,-99.99,,2013-06-08 00:55:00,
2013-06-07 20:07:00,68.0,51.0,29.90,North,-999,-999.0,-999.0,54,-99.99,,,-99.99,,2013-06-08 01:07:00,
2013-06-07 20:18:00,67.0,52.0,29.90,North,-999,-999.0,-999.0,58,-99.99,,,-99.99,,2013-06-08 01:18:00,
2013-06-07 20:27:00,67.0,53.0,29.90,North,-999,-999.0,-999.0,61,-99.99,,,-99.99,,2013-06-08 01:27:00,
2013-06-07 20:38:00,66.0,52.0,29.90,North,-999,-999.0,-999.0,59,-99.99,,,-99.99,,2013-06-08 01:38:00,
2013-06-07 21:08:00,66.0,50.0,29.91,North,-999,-999.0,-999.0,56,-99.99,,,-99.99,,2013-06-08 02:08:00,
2013-06-07 21:29:00,66.0,50.0,29.92,North,-999,-999.0,-999.0,55,-99.99,,,-99.99,,2013-06-08 02:29:00,
2013-06-07 21:34:00,64.0,51.0,29.92,North,-999,-999.0,-999.0,63,-99.99,,,-99.99,,2013-06-08 02:34:00,
2013-06-07 21:47:00,64.0,51.0,29.92,North,-999,-999.0,-999.0,63,-99.99,,,-99.99,,2013-06-08 02:47:00,
2013-06-07 21:54:00,63.0,52.0,29.92,North,-999,-999.0,-999.0,66,-99.99,,,-99.99,,2013-06-08 02:54:00,
2013-06-07 22:09:00,63.0,52.0,29.92,North,-999,-999.0,-999.0,66,-99.99,,,-99.99,,2013-06-08 03:09:00,
2013-06-07 22:16:00,61.0,52.0,29.92,North,-999,-999.0,-999.0,73,-99.99,,,-99.99,,2013-06-08 03:16:00,
2013-06-07 22:27:00,62.0,52.0,29.93,North,-999,-999.0,-999.0,70,-99.99,,,-99.99,,2013-06-08 03:27:00,
2013-06-07 22:36:00,62.0,52.0,29.93,North,-999,-999.0,-999.0,70,-99.99,,,-99.99,,2013-06-08 03:36:00,
2013-06-07 22:51:00,62.0,52.0,29.93,North,-999,-999.0,-999.0,70,-99.99,,,-99.99,,2013-06-08 03:51:00,
2013-06-07 23:03:00,61.0,52.0,29.94,North,-999,-999.0,-999.0,71,-99.99,,,-99.99,,2013-06-08 04:03:00,
2013-06-07 23:13:00,62.0,51.0,29.94,North,-999,-999.0,-999.0,68,-99.99,,,-99.99,,2013-06-08 04:13:00,
2013-06-07 23:23:00,60.0,51.0,29.94,North,-999,-999.0,-999.0,74,-99.99,,,-99.99,,2013-06-08 04:23:00,
2013-06-07 23:33:00,59.0,51.0,29.94,North,-999,-999.0,-999.0,74,-99.99,,,-99.99,,2013-06-08 04:33:00,
2013-06-07 23:42:00,59.0,51.0,29.94,North,-999,-999.0,-999.0,74,-99.99,,,-99.99,,2013-06-08 04:42:00,
2013-06-07 23:53:00,62.0,51.0,29.94,North,-999,-999.0,-999.0,69,-99.99,,,-99.99,,2013-06-08 04:53:00,